Regional Weather Roundup
Issued by NWS Newport/Morehead, NC

Current Version | Previous Version | Graphics & Text | Print | Product List | Glossary Off
Versions: 1 2 3 4 5 6 7 8 9 10 11 12 13 14 15 16 17 18 19 20 21 22 23 24 25 26 27 28 29 30 31 32 33 34 35 36 37 38 39 40 41 42 43 44 45 46 47 48 49 50

000
ASUS42 KMHX 251513
RWRMHX
WEATHER ROUNDUP FOR EASTERN NORTH CAROLINA
NATIONAL WEATHER SERVICE NEWPORT/MOREHEAD CITY NC
1100 AM EDT MON MAY 25 2015

NOTE: "FAIR" INDICATES FEW OR NO CLOUDS BELOW 12,000 FEET
WITH NO SIGNIFICANT WEATHER AND/OR OBSTRUCTIONS TO VISIBILITY

NCZ015>017-031-032-045>047-102-103-251600-
NORTH COAST

CITY           SKY/WX    TMP DP  RH WIND       PRES   REMARKS
EDENTON        SUNNY     76  60  57 SW7       30.37S
ELIZABETH CITY SUNNY     76  59  55 S8        30.37S
KITTY HAWK     MOSUNNY   77  54  44 CALM      30.36F
MANTEO         MOSUNNY   75  56  52 S7        30.37F

$$

NCZ045>047-081-094-103-104-251600-
CENTRAL COAST

CITY           SKY/WX    TMP DP  RH WIND       PRES   REMARKS
FRISCO         SUNNY     76  56  49 S7        30.38S
SWANQUARTER      N/A     79 N/A N/A S7        30.33S

$$

NCZ095-097-098-100-101-251600-
SOUTHERN COAST

CITY           SKY/WX    TMP DP  RH WIND       PRES   REMARKS
BEAUFORT       SUNNY     75  59  57 VRB7      30.37S
CEDAR ISLAND     N/A     75 N/A N/A SE9       30.41S
JACKSONVILLE   MOSUNNY   78  56  46 E13       30.35S
PINEY ISLAND   SUNNY    N/A N/A N/A SE9       30.37S
WILMINGTON     SUNNY     77  59  53 SE8       30.36R


$$

NCZ011>013-027>030-043-044-078>080-089-090>093-098-251600-
COASTAL PLAIN

CITY           SKY/WX    TMP DP  RH WIND       PRES   REMARKS
AHOSKIE        SUNNY     75  59  57 S7        30.36F
CLINTON        MOSUNNY   76  62  60 S5        30.36S
ELIZABETHTOWN  SUNNY     77  57  50 S7        30.35S
GOLDSBORO      SUNNY     77  58  52 SE9       30.33F
GREENVILLE     SUNNY     77  57  50 S7        30.36F
HAVELOCK       SUNNY     78  54  43 SE10      30.37F
KENANSVILLE    SUNNY     76  57  50 SE5       30.36F
KINSTON        SUNNY     79  55  44 S8G16     30.36F
NEW BERN       SUNNY     78  59  51 SE9       30.37F
RICHLANDS      MOSUNNY   79  55  44 S10       30.36F
ROCKY MOUNT    SUNNY     77  59  53 VRB7      30.36S
WASHINGTON     SUNNY     75  58  55 S3        30.37S
WHITEVILLE     SUNNY     76  57  52 E5        30.34F

$$

AMZ130-135-150-152-154-156-158-170-250-252-270-ANZ085-086-088-633-658-670-251600-
MARINE OBSERVATIONS

STATION/POSITION TIME  TEMP    WIND        PRES    WAVE   SWELL
                       AIR SEA DIR/SP/G            HT/PER HT/PER
                 (UTC) (F)     (DEG/KT/KT) (MB)    (FT/S) (FT/S)
CHESAPEAKE LIGHT 1400   66     180/ 12/ 12 1028.7
64 E VA BEACH    1450   65 63  160/  4/  4 1028.5    1/ 8   2/ 8
DUCK             1400   68 63  140/  9/ 10 1027.4
2 E DUCK         1411      64                N/A     1/ 8
OREGON INLET     1400   72 72  180/  7/  9 1028.6
13E OREGON INLT  1500      67                N/A     2/ 8
HATTERAS CG      1400   74 73  150/  6/  7 1028.2
DIAMOND BUOY     1450   73 77  150/  6/  8 1028.9    2/ 7   2/ 7
CAPE LOOKOUT     1500   73     120/  8/  9 1028.0
BEAUFORT LAB     1400   74 74  130/  7/  9 1027.6
27 SE WRIGHTSVLE 1400   71 76  150/  8/ 10   N/A
5 SE WRIGHTSVLE  1408   74 76  160/ 10/ 12 1027.9
225 S CAPE HAT   1450   74 74  100/ 14/ 17 1027.7    4/ 5   2/ 9
41 SE CHARLESTON 1450   75 75  100/ 12/ 14 1026.2    4/ 7   3/ 7

$$



USA.gov is the U.S. government's official web portal to all federal, state and local government web resources and services.